• Join FlightAware (Why Join?)
  • Login
  • US Flag 
10:19PM EDT


 

Airport Tracker/Info


-or-


 

Live Flight TrackerFlight Track Log ✈ UPS1111 ✈ 22-Aug-2013 ✈ KJFK - KSDF

Flight Track Log - Related Links

Times and Time Zones

All times are in EDT time to prevent confusion due to time zone crossing. See the UPS1111 flight status page for this flight to view local times or setup timezone preferences in your user account.

Time Position Orientation Groundspeed Altitude Reporting Facility
EDT Latitude Longitude Course Direction KTS MPH feet Rate Location/Type
11:06PM 40.6370 -73.7740 217° Southwest 145 167  Level FlightAware
11:06PM 40.6250 -73.7830 210° Southwest 158 182 900 2,340 Climbing FlightAware
11:07PM 40.6090 -73.7930 205° Southwest 175 201 1,700 1,500 Climbing FlightAware
11:07PM 40.5920 -73.8030 204° Southwest 208 239 2,000 1,320 Climbing FlightAware
11:07PM 40.5740 -73.8150 207° Southwest 221 254 2,600 2,100 Climbing FlightAware
11:07PM 40.5670 -73.8240 224° Southwest 222 255 3,000 2,460 Climbing FlightAware
11:08PM 40.5530 -73.8450 229° Southwest 236 272 3,800 1,980 Climbing FlightAware
11:08PM 40.5420 -73.8650 234° Southwest 262 302 4,200 2,520 Climbing FlightAware
11:08PM 40.5280 -73.8900 234° Southwest 265 305 5,300 3,000 Climbing FlightAware
11:09PM 40.5140 -73.9170 236° Southwest 271 312 6,200 3,120 Climbing FlightAware
11:09PM 40.4923 -73.9556 234° Southwest 275 316 7,800 3,240 Climbing FlightAware ADS-B
11:09PM 40.4855 -73.9678 234° Southwest 274 315 8,200 2,760 Climbing FlightAware ADS-B
11:09PM 40.4813 -73.9758 235° Southwest 274 315 8,500 2,460 Climbing FlightAware ADS-B
11:09PM 40.4780 -73.9836 241° Southwest 276 318 8,700 2,460 Climbing FlightAware ADS-B
11:10PM 40.4749 -73.9928 246° West 276 318 9,000 3,240 Climbing FlightAware ADS-B
11:10PM 40.4730 -74.0010 253° West 277 319 9,300 3,000 Climbing FlightAware ADS-B
11:10PM 40.4713 -74.0141 260° West 281 323 9,600 2,760 Climbing FlightAware ADS-B
11:10PM 40.4708 -74.0276 267° West 283 326 10,000 2,100 Climbing FlightAware ADS-B
11:10PM 40.4694 -74.0823 268° West 307 353 11,000 1,440 Climbing FlightAware ADS-B
11:11PM 40.4673 -74.1441 267° West 353 406 11,500 2,040 Climbing FlightAware ADS-B
11:11PM 40.4641 -74.2104 266° West 368 423 13,100 3,180 Climbing FlightAware ADS-B
11:12PM 40.4610 -74.2801 267° West 380 437 14,700 3,120 Climbing FlightAware ADS-B
11:12PM 40.4583 -74.3505 267° West 391 450 16,300 3,120 Climbing FlightAware ADS-B
11:13PM 40.4555 -74.4222 267° West 399 459 17,900 3,060 Climbing FlightAware ADS-B
11:13PM 40.4526 -74.4958 267° West 408 470 19,400 2,700 Climbing FlightAware ADS-B
11:14PM 40.4495 -74.5716 267° West 419 482 20,600 2,400 Climbing FlightAware ADS-B
11:14PM 40.4460 -74.6525 267° West 428 493 21,900 2,460 Climbing FlightAware ADS-B
11:15PM 40.4426 -74.7325 267° West 438 504 23,200 2,340 Climbing FlightAware ADS-B
11:16PM 40.4391 -74.8141 267° West 447 514 24,300 2,100 Climbing FlightAware ADS-B
11:16PM 40.4354 -74.8964 267° West 458 527 25,300 2,040 Climbing FlightAware ADS-B
11:17PM 40.4317 -74.9810 267° West 467 537 26,400 2,220 Climbing FlightAware ADS-B
11:17PM 40.4275 -75.0714 267° West 473 544 27,600 2,100 Climbing FlightAware ADS-B
11:18PM 40.4234 -75.1590 267° West 476 548 28,600 2,100 Climbing FlightAware ADS-B
11:18PM 40.4192 -75.2469 266° West 477 549 29,800 1,320 Climbing FlightAware ADS-B
11:19PM 40.4150 -75.3339 266° West 478 550 30,000 180 Climbing FlightAware ADS-B
11:19PM 40.4108 -75.4226 266° West 480 552 30,000  Level FlightAware ADS-B
11:20PM 40.4063 -75.5110 266° West 485 558 30,000  Level FlightAware ADS-B
11:20PM 40.4017 -75.6010 266° West 488 562 30,000  Level FlightAware ADS-B
11:21PM 40.3972 -75.6902 266° West 485 558 30,000  Level FlightAware ADS-B
11:21PM 40.3925 -75.7787 266° West 474 545 30,000  Level FlightAware ADS-B
11:22PM 40.3879 -75.8677 266° West 471 542 30,000 240 Level FlightAware ADS-B
11:22PM 40.3833 -75.9540 266° West 470 541 30,300 1,800 Climbing FlightAware ADS-B
11:23PM 40.3785 -76.0392 266° West 457 526 31,800 2,940 Climbing FlightAware ADS-B
11:23PM 40.3740 -76.1221 266° West 444 511 33,300 2,460 Climbing FlightAware ADS-B
11:24PM 40.3690 -76.2130 266° West 437 503 34,600 2,220 Climbing FlightAware
11:24PM 40.3672 -76.2422 265° West 435 501 35,000 1,800 Climbing FlightAware ADS-B
11:24PM 40.3628 -76.3214 266° West 433 498 35,800 960 Climbing FlightAware ADS-B
11:25PM 40.3584 -76.3998 266° West 436 502 36,000 180 Climbing FlightAware ADS-B
11:25PM 40.3537 -76.4824 266° West 438 504 36,000  Level FlightAware ADS-B
11:26PM 40.3489 -76.5615 265° West 437 503 36,000  Level FlightAware ADS-B
11:26PM 40.3440 -76.6423 265° West 436 502 36,000  Level FlightAware ADS-B
11:27PM 40.3393 -76.7213 266° West 434 499 36,000  Level FlightAware ADS-B
11:27PM 40.3343 -76.8025 265° West 431 496 36,000  Level FlightAware ADS-B
11:28PM 40.3295 -76.8818 265° West 428 493 36,000  Level FlightAware ADS-B
11:28PM 40.3245 -76.9612 265° West 426 490 36,000  Level FlightAware ADS-B
11:29PM 40.3192 -77.0452 265° West 425 489 36,000  Level FlightAware ADS-B
11:30PM 40.3133 -77.1360 265° West 423 487 36,000  Level FlightAware ADS-B
11:30PM 40.3073 -77.2298 265° West 424 488 36,000  Level FlightAware ADS-B
11:31PM 40.2979 -77.3724 265° West 425 489 36,000  Level FlightAware ADS-B
11:32PM 40.2921 -77.4601 265° West 421 484 36,000  Level FlightAware ADS-B
11:32PM 40.2869 -77.5375 265° West 420 483 36,000  Level FlightAware ADS-B
11:33PM 40.2816 -77.6151 265° West 418 481 36,000  Level FlightAware ADS-B
11:34PM 40.2768 -77.7245 267° West 416 479 36,000  Level FlightAware ADS-B
11:34PM 40.2757 -77.7927 269° West 415 478 36,000  Level FlightAware ADS-B
11:34PM 40.2753 -77.8703 270° West 416 479 36,000  Level FlightAware ADS-B
11:35PM 40.2752 -77.9475 270° West 415 478 36,000  Level FlightAware ADS-B
11:36PM 40.2750 -78.0331 270° West 414 476 36,000  Level FlightAware ADS-B
11:36PM 40.2746 -78.1095 270° West 413 475 36,000  Level FlightAware ADS-B
11:37PM 40.2740 -78.1950 270° West 413 475 36,000  Level FlightAware
11:37PM 40.2733 -78.2632 269° West 413 475 36,000  Level FlightAware ADS-B
11:38PM 40.2720 -78.3680 269° West 412 474 36,000  Level FlightAware
11:38PM 40.2718 -78.4069 270° West 413 475 36,000  Level FlightAware ADS-B
11:39PM 40.2701 -78.5602 269° West 412 474 36,000  Level FlightAware ADS-B
11:40PM 40.2680 -78.7300 269° West 409 471 36,000  Level FlightAware
11:41PM 40.2670 -78.8160 269° West 410 472 36,000  Level FlightAware
11:41PM 40.2650 -78.9160 269° West 410 472 36,000  Level FlightAware
11:42PM 40.2640 -78.9870 269° West 410 472 36,000  Level FlightAware
11:43PM 40.2630 -79.0740 269° West 410 472 36,000  Level FlightAware
11:43PM 40.2610 -79.1740 269° West 408 470 36,000  Level FlightAware
11:44PM 40.2600 -79.2440 269° West 407 468 36,000  Level FlightAware
11:44PM 40.2580 -79.3340 268° West 408 470 36,000  Level FlightAware
11:45PM 40.2560 -79.4210 268° West 408 470 36,000  Level FlightAware
11:46PM 40.2470 -79.5190 263° West 413 475 36,000  Level FlightAware
11:46PM 40.2300 -79.6040 255° West 413 475 36,000  Level FlightAware
11:47PM 40.2160 -79.6760 256° West 414 476 36,000  Level FlightAware
11:47PM 40.1940 -79.7820 255° West 415 478 36,000  Level FlightAware
11:48PM 40.1750 -79.8700 254° West 416 479 36,000  Level FlightAware
11:49PM 40.1570 -79.9540 254° West 416 479 36,000  Level FlightAware
11:49PM 40.1420 -80.0220 254° West 416 479 36,000  Level FlightAware
11:50PM 40.1230 -80.1090 254° West 417 480 36,000  Level FlightAware
11:50PM 40.1010 -80.2070 254° West 417 480 36,000  Level FlightAware
11:51PM 40.0780 -80.3150 254° West 416 479 36,000  Level FlightAware
11:52PM 40.0760 -80.3250 255° West 417 480 36,000  Level FlightAware
11:52PM 40.0590 -80.3990 253° West 417 480 36,000  Level FlightAware
11:53PM 40.0160 -80.5970 254° West 419 482 36,000  Level FlightAware
11:54PM 39.9970 -80.6800 253° West 418 481 36,000  Level FlightAware
11:54PM 39.9780 -80.7650 254° West 420 483 36,000  Level FlightAware
11:55PM 39.9580 -80.8520 253° West 420 483 36,000  Level FlightAware
11:55PM 39.9400 -80.9260 252° West 420 483 36,000  Level FlightAware
11:56PM 39.9230 -81.0000 253° West 420 483 36,000  Level FlightAware
11:57PM 39.8950 -81.1310 254° West 421 484 36,000  Level FlightAware
11:57PM 39.8790 -81.2030 254° West 422 486 36,000  Level FlightAware
11:58PM 39.8560 -81.3000 253° West 422 486 36,000  Level FlightAware
11:58PM 39.8370 -81.3860 254° West 421 484 36,000  Level FlightAware
11:59PM 39.8150 -81.4810 253° West 422 486 36,000  Level FlightAware
12:00AM 39.7960 -81.5620 253° West 422 486 36,000  Level FlightAware
12:00AM 39.7760 -81.6470 253° West 422 486 36,000  Level FlightAware
12:01AM 39.7550 -81.7370 253° West 424 488 36,000  Level FlightAware
12:01AM 39.7360 -81.8200 253° West 424 488 36,000  Level FlightAware
12:02AM 39.7160 -81.9070 253° West 425 489 36,000  Level FlightAware
12:03AM 39.6940 -81.9960 252° West 425 489 36,000  Level FlightAware
12:03AM 39.6760 -82.0730 253° West 424 488 36,000  Level FlightAware
12:04AM 39.6550 -82.1620 253° West 424 488 36,000  Level FlightAware
12:04AM 39.6350 -82.2450 253° West 424 488 36,000  Level FlightAware
12:05AM 39.6140 -82.3340 253° West 423 487 36,000  Level FlightAware
12:06AM 39.5930 -82.4190 252° West 424 488 36,000  Level FlightAware
12:06AM 39.5740 -82.5010 253° West 423 487 36,000  Level FlightAware
12:07AM 39.5570 -82.5710 253° West 422 486 36,000  Level FlightAware
12:07AM 39.5360 -82.6580 253° West 422 486 36,000  Level FlightAware
12:08AM 39.5150 -82.7440 252° West 422 486 36,000  Level FlightAware
12:08AM 39.4940 -82.8300 252° West 421 484 36,000  Level FlightAware
12:09AM 39.4710 -82.9210 252° West 420 483 36,000 -720 Level FlightAware
12:10AM 39.4530 -82.9950 253° West 418 481 35,200 -1,740 Descending FlightAware
12:10AM 39.4310 -83.0850 252° West 421 484 34,000 -1,980 Descending FlightAware
12:11AM 39.4080 -83.1760 252° West 424 488 32,800 -1,860 Descending FlightAware
12:11AM 39.3880 -83.2560 252° West 423 487 31,800 -1,860 Descending FlightAware
12:12AM 39.3670 -83.3420 252° West 424 488 30,700 -1,560 Descending FlightAware
12:13AM 39.3450 -83.4300 252° West 422 486 30,000 -600 Descending FlightAware
12:13AM 39.3250 -83.5080 252° West 420 483 30,000  Level FlightAware
12:14AM 39.3040 -83.5910 252° West 423 487 30,000  Level FlightAware
12:14AM 39.2820 -83.6780 252° West 424 488 30,000  Level FlightAware
12:15AM 39.2600 -83.7640 252° West 423 487 30,000  Level FlightAware
12:15AM 39.2400 -83.8440 252° West 423 487 30,000  Level FlightAware
12:16AM 39.2140 -83.9260 248° West 424 488 30,000  Level FlightAware
12:17AM 39.1850 -83.9960 242° Southwest 427 491 30,000 -960 Level FlightAware
12:17AM 39.1450 -84.0880 241° Southwest 419 482 28,900 -1,920 Descending FlightAware
12:18AM 39.1140 -84.1600 241° Southwest 267 307 27,600 -2,220 Descending FlightAware
12:19AM 39.0670 -84.2660 240° Southwest 411 473 25,700 -1,440 Descending FlightAware
12:19AM 39.0300 -84.3500 240° Southwest 408 470 25,400 -1,680 Descending FlightAware
12:20AM 38.9810 -84.4620 241° Southwest 409 471 23,100 -3,000 Descending FlightAware
12:21AM 38.9430 -84.5480 240° Southwest 403 464 20,800 -2,880 Descending FlightAware
12:21AM 38.9110 -84.6180 240° Southwest 394 453 19,600 -2,100 Descending FlightAware
12:22AM 38.8800 -84.6880 240° Southwest 386 444 18,400 -2,160 Descending FlightAware
12:23AM 38.8410 -84.7750 240° Southwest 381 438 16,800 -2,160 Descending FlightAware
12:23AM 38.8120 -84.8390 240° Southwest 375 432 15,700 -1,920 Descending FlightAware
12:24AM 38.7800 -84.9110 240° Southwest 368 423 14,500 -1,620 Descending FlightAware
12:24AM 38.7470 -84.9620 230° Southwest 368 423 13,900 -1,800 Descending FlightAware
12:25AM 38.6990 -85.0100 218° Southwest 370 426 12,500 -1,440 Descending FlightAware
12:26AM 38.6290 -85.0780 217° Southwest 367 422 11,900 -420 Descending FlightAware
12:27AM 38.5870 -85.1180 217° Southwest 368 423 11,900  Level FlightAware
12:27AM 38.5360 -85.1660 216° Southwest 369 425 11,900 -540 Level FlightAware
12:28AM 38.4880 -85.2120 217° Southwest 356 410 11,300 -1,140 Descending FlightAware
12:28AM 38.4430 -85.2550 217° Southwest 339 390 10,600 -1,140 Descending FlightAware
12:29AM 38.4030 -85.2940 217° Southwest 304 350 10,000 -1,140 Descending FlightAware
12:29AM 38.3790 -85.3160 216° Southwest 299 344 9,600 -1,380 Descending FlightAware
12:29AM 38.3580 -85.3360 217° Southwest 299 344 9,100 -1,560 Descending FlightAware
12:30AM 38.3410 -85.3520 216° Southwest 301 346 8,700 -1,380 Descending FlightAware
12:30AM 38.3120 -85.3800 217° Southwest 298 343 8,200 -1,200 Descending FlightAware
12:30AM 38.2910 -85.4000 217° Southwest 295 339 7,800 -1,020 Descending FlightAware
12:31AM 38.2800 -85.4100 216° Southwest 293 337 7,700 -900 Descending FlightAware
12:31AM 38.2520 -85.4350 215° Southwest 288 331 7,300 -840 Descending FlightAware
12:31AM 38.2330 -85.4530 217° Southwest 279 321 7,100 -600 Descending FlightAware
12:32AM 38.2090 -85.4740 215° Southwest 269 310 6,900 -300 Descending FlightAware
12:32AM 38.1920 -85.4890 215° Southwest 250 288 6,900 120 Level FlightAware
12:32AM 38.1680 -85.5110 216° Southwest 223 257 7,000  Climbing FlightAware
12:33AM 38.1560 -85.5210 213° Southwest 223 257 6,900 -300 Descending FlightAware
12:33AM 38.1330 -85.5430 217° Southwest 196 226 6,800 -660 Descending FlightAware
12:34AM 38.1190 -85.5550 214° Southwest 193 222 6,400 -1,320 Descending FlightAware
12:34AM 38.1030 -85.5640 204° Southwest 198 228 6,000 -960 Descending FlightAware
12:34AM 38.0810 -85.5580 168° South 187 215 5,700 -900 Descending FlightAware
12:35AM 38.0680 -85.5520 160° South 187 215 5,400 -1,200 Descending FlightAware
12:35AM 38.0510 -85.5460 164° South 186 214 5,000 -1,080 Descending FlightAware
12:35AM 38.0400 -85.5420 164° South 185 213 4,800 -1,080 Descending FlightAware
12:35AM 38.0230 -85.5350 162° South 184 212 4,400 -1,080 Descending FlightAware
12:36AM 38.0090 -85.5300 164° South 183 211 4,100 -900 Descending FlightAware
12:36AM 37.9950 -85.5250 164° South 182 209 3,900 -360 Descending FlightAware
12:36AM 37.9790 -85.5190 164° South 186 214 3,900  Level FlightAware
12:37AM 37.9660 -85.5140 163° South 185 213 3,900  Level FlightAware
12:37AM 37.9500 -85.5090 166° South 180 207 3,900 -480 Level FlightAware
12:37AM 37.9360 -85.5170 204° Southwest 171 197 3,600 -1,020 Descending FlightAware
12:37AM 37.9340 -85.5250 252° West 171 197 3,400 -1,200 Descending FlightAware
12:38AM 37.9330 -85.5320 260° West 171 197 3,300 -1,200 Descending FlightAware
12:38AM 37.9350 -85.5510 278° West 171 197 2,900 -720 Descending FlightAware
12:38AM 37.9390 -85.5670 288° West 174 200 2,900  Level FlightAware
12:38AM 37.9440 -85.5740 312° West 177 204 2,900  Level FlightAware
12:38AM 37.9510 -85.5820 318° Northwest 180 207 2,900  Level FlightAware
12:39AM 37.9660 -85.5990 318° Northwest 178 205 2,900 -180 Level FlightAware
12:39AM 37.9780 -85.6120 320° Northwest 179 206 2,800 -600 Descending FlightAware
12:40AM 37.9900 -85.6250 320° Northwest 179 206 2,500 -780 Descending FlightAware
12:40AM 38.0030 -85.6390 320° Northwest 175 201 2,300 -360 Descending FlightAware
12:40AM 38.0120 -85.6490 319° Northwest 177 204 2,300  Level FlightAware
12:40AM 38.0240 -85.6640 315° West 177 204 2,300  Level FlightAware
12:41AM 38.0360 -85.6760 322° Northwest 178 205 2,300  Level FlightAware
12:41AM 38.0440 -85.6820 329° Northwest 178 205 2,300  Level FlightAware
12:41AM 38.0610 -85.6880 344° North 182 209 2,300 -180 Level FlightAware
12:42AM 38.0740 -85.6930 343° North 180 207 2,200 -720 Descending FlightAware
12:42AM 38.0940 -85.7000 345° North 163 188 1,800 -960 Descending FlightAware
12:42AM 38.1080 -85.7040 347° North 151 174 1,500 -900 Descending FlightAware
12:43AM 38.1230 -85.7100 343° North 149 171 1,200 -780 Descending FlightAware
12:43AM 38.1310 -85.7120 349° North 150 173 1,100 -720 Descending FlightAware
12:43AM 38.1470 -85.7180 344° North 149 171 800 -840 Descending FlightAware
12:44AM 38.1600 -85.7220 346° North 146 168 500 -360 Descending FlightAware
12:44AM 38.1760 -85.7280 344° North 145 167 500  Level FlightAware